{"data":{"norad_id":59157,"epoch":"2026-05-25T02:56:03.333120Z","epoch_age_seconds":64402,"freshness":"FRESH","line1":"1 59157U 24044F   26145.12226080  .00003699  00000+0  14385-3 0  9990","line2":"2 59157  42.9988  38.9314 0001417 265.7404  94.3286 15.27585663125219","mean_motion":15.27585663,"eccentricity":0.0001417,"inclination_deg":42.9988,"raan_deg":38.9314,"arg_perigee_deg":265.7404,"mean_anomaly_deg":94.3286,"bstar":0.00014385,"rev_number":12521,"period_min":94.266399252007,"perigee_km":482.05991136578,"apogee_km":484.00436669979,"semimajor_km":6861.1691390328,"source":"CELESTRAK","updated_at":"2026-05-25T13:38:18.833391Z"}}